Location: Brno
(49.2000°N, 16.6330°E)
Time: 00:14:25
(UTC+02:00)

Transit 4A - Pass Details

Date: 01 August 2021
Orbit: 870 x 974 km, 66.8° (Epoch: 26 September)

Event Time Altitude Azimuth Distance (km) Brightness Sun altitude
Rises 04:06:43 0° 284° (WNW) 3,470 10.6 -11.1°
Reaches altitude 10° 04:10:15 10° 305° (NW) 2,527 10.1 -10.7°
Maximum altitude 04:13:48 16° 343° (NNW) 2,110 10.1 -10.3°
Drops below altitude 10° 04:17:23 10° 21° (NNE) 2,530 11.3 -9.8°
Sets 04:20:55 0° 43° (NE) 3,478 13.2 -9.4°
